www.pogodaiklimat.ru

Погода и климат >> Архив погоды >> Канада >> Chris Hadfield


ПОГОДА в Chris Hadfield

  • Прогноз погоды в Chris Hadfield
  • Монитор погоды в Chris Hadfield
  • Климат города

АРХИВ ПОГОДЫ в Chris Hadfield

Время (UTC), дата Ветер
(напр.,м/с)
 
Видим.   Явления Облачность Т
(С)
Тd
(С)
f
(%)
Тe
(С)
Тes
(С)
Комфортность P
(гПа)
Po
(гПа)
Тmin
(С)
Tmax
(С)
R
(мм)
R24
(мм)
S
(см)
12 12.12 ЮВ 3 6000 м дымка ясно -6.0 -7.1 92 -11 -11 1019.5 996.9 -7.0 -0.4
15 12.12 ЮВ 4 8000 м дымка 9/9 600 м
[]
-1.6 -3.3 88 -7 -7 1018.4 995.9
18 12.12 ЮВ 8 16 км 9/9 600 м
[]
+1.5 -3.2 71 -5 -5 1014.9 992.5 -7.0 +1.7
21 12.12 ЮВ 6 11 км 10/0
[]
+1.9 -1.9 76 -4 -4 1013.2 990.8
00 13.12 ЮВ 7 12 км 10/10 1000 м
[]
+2.7 -1.1 76 -3 -3 1013.8 991.4 -7.0 +2.7
03 13.12 ЮВ 4 16 км 10/10 1000 м
[]
+2.3 -1.0 79 -2 -2 1014.0 991.7
06 13.12 Ю 3 11 км 10/10 300 м
[]
+1.2 +0.5 95 -3 -3 1014.7 992.4 -7.0 +2.7 181
09 13.12 ЮВ 3 6000 м дымка 10/10 300 м
[]
+0.9 +0.5 97 -3 -3 1016.4 994.1
12 13.12 ЮЗ 1 4800 м дымка 10/10 200 м
[]
+1.1 +0.5 96 0 0 1019.2 996.9 +0.7 +2.7
15 13.12 ЮЗ 2 4000 м дымка 10/10 200 м
[]
+2.1 +0.8 91 -1 -1 1021.7 999.3
18 13.12 Ю 2 4800 м дымка 10/10 200 м
[]
+2.9 +1.1 88 0 0 1021.9 999.5 +0.7 +3.0
21 13.12 Ю 3 11 км 10/10 300 м
[]
+2.5 -0.3 82 -2 -2 1023.2 1000.8
00 14.12 ЮВ 3 6000 м дымка 3/3 600 м
[]
-1.2 -2.2 93 -6 -6 1023.7 1001.2 -1.3 +3.2
03 14.12 ЮВ 3 4800 м дымка ясно -1.1 -1.9 94 -6 -6 1023.8 1001.3
06 14.12 ЮВ 4 4000 м дымка 10/0 2000 м
[]
+0.7 -0.2 94 -4 -4 1022.7 1000.3 -2.7 +3.2
09 14.12 ЮВ 3 1600 м слаб. дождь {осадки} 10/10 600 м
[]
+2.0 +1.7 98 -2 -2 1022.7 1000.3
12 14.12 Ю 3 2800 м слаб. дождь {осадки} 10/10 600 м
[]
+2.9 +2.5 97 -1 -1 1022.2 999.7 -2.7 +3.2 6
15 14.12 Ю 2 2800 м дымка {осадки} 10/10 600 м
[]
+3.7 +3.3 97 +1 +1 1023.2 1000.7
18 14.12 Ю 3 8000 м дымка 10/10 300 м
[]
+6.6 +5.0 90 +3 +3 1020.9 998.6 -2.7 +6.6 2
21 14.12 С 2 4800 м дымка 10/10 200 м
[]
+5.4 +4.5 94 +3 +3 1021.7 999.4
00 15.12 СЗ 1 4800 м дымка 10/10 100 м
[]
+4.4 +4.0 97 +3 +3 1022.7 1000.4 +0.7 +7.0
03 15.12 З 2 2000 м дымка 10/10 50 м
[]
+3.1 +2.8 98 0 0 1023.0 1000.6
06 15.12 С 2 1000 м дымка н/о +0.5 +0.4 99 -3 -3 1022.2 999.9 +0.5 +7.0
09 15.12 С 5 11 км 10/10 200 м
[]
+1.4 +0.8 96 -4 -4 1023.7 1001.3
12 15.12 СВ 5 8000 м дымка 9/0
[]
+1.8 +1.1 95 -4 -4 1023.2 1000.8 +0.3 +7.0
15 15.12 СВ 4 14 км 10/0
[]
+2.0 +0.5 90 -3 -3 1023.8 1001.4
18 15.12 СВ 5 16 км 10/0
[]
+2.8 +1.0 88 -3 -3 1022.1 999.7 +0.3 +2.8
21 15.12 СВ 4 14 км 10/0
[]
+2.7 +1.1 89 -2 -2 1022.5 1000.1
00 16.12 СВ 7 16 км 10/0
[]
+2.6 +1.0 89 -4 -4 1022.4 1000.0 +0.3 +3.0
03 16.12 СВ 3 9000 м дымка 9/0
[]
+1.0 -0.3 91 -3 -3 1022.0 999.6
06 16.12 СВ 2 11 км 9/0
[]
+0.1 -1.4 90 -4 -4 1019.6 997.2 -0.3 +3.0 0
09 16.12 СВ 3 16 км 3/0
[]
-1.0 -2.3 91 -6 -6 1018.5 996.1
12 16.12 СВ 2 14 км 5/0
[]
-1.4 -2.4 93 -5 -5 1019.1 996.7 -1.6 +3.0
15 16.12 В 2 14 км 9/0
[]
+1.4 +0.2 92 -2 -2 1018.7 996.3
18 16.12 ЮЗ 3 16 км ясно +5.0 +1.1 76 +2 +2 1016.1 993.9 -2.0 +5.0
21 16.12 СЗ 2 16 км 5/0
[]
+5.8 +1.3 73 +4 +4 1015.3 993.1
00 17.12 ЮЗ 2 16 км ясно +1.0 -0.8 88 -3 -3 1015.6 993.2 -2.0 +7.1
03 17.12 З 4 14 км ясно +0.8 -1.4 85 -4 -4 1014.5 992.2
06 17.12 Ю 2 11 км ясно -0.4 -1.8 90 -4 -4 1012.5 990.3 -2.0 +7.1
09 17.12 З 6 16 км ясно +1.0 -1.4 84 -5 -5 1012.1 990.0
12 17.12 СЗ 5 16 км ясно +0.5 -2.1 83 -5 -5 1014.3 992.0 -1.8 +7.1
15 17.12 СЗ 5 16 км 10/10 1000 м
[]
+0.9 -2.3 79 -5 -5 1016.8 994.5
18 17.12 СЗ 7 16 км 10/10 1000 м
[]
+1.7 -3.2 70 -5 -5 1016.8 994.5 -1.8 +2.2
21 17.12 СЗ 6 16 км 10/10 600 м
[]
+0.7 -4.4 69 -5 -5 1019.2 996.8
00 18.12 СЗ 7 16 км 10/10 600 м
[]
+0.3 -5.0 68 -6 -6 1021.0 998.6 -1.8 +2.2
03 18.12 СЗ 5 16 км 10/10 600 м
[]
-0.3 -5.7 67 -6 -6 1021.8 999.3
06 18.12 С 5 16 км 10/10 600 м
[]
-0.9 -5.7 70 -7 -7 1022.6 1000.1 -1.8 +2.2 191
09 18.12 СЗ 6 16 км 10/10 600 м
[]
-1.2 -5.8 71 -8 -8 1023.4 1000.9
12 18.12 СЗ 3 16 км 10/10 600 м
[]
-1.5 -5.7 73 -6 -6 1024.1 1001.5 -1.7 +2.2
15 18.12 З 3 16 км 10/10 600 м
[]
-0.9 -5.7 70 -6 -6 1025.5 1002.9
18 18.12 СЗ 2 16 км 9/9 600 м
[]
+0.4 -5.4 65 -2 -2 1024.0 1001.5 -1.7 +0.8
21 18.12 Ю 3 16 км ясно +1.2 -4.5 66 -3 -3 1022.8 1000.3
00 19.12 Ю 3 16 км ясно -1.5 -4.7 79 -6 -6 1021.9 999.3 -1.7 +2.3
03 19.12 Ю 3 16 км ясно -2.7 -4.6 87 -8 -8 1021.1 998.5
06 19.12 Ю 5 16 км ясно -1.9 -3.8 87 -9 -9 1018.1 995.7 -3.0 +2.3 8

 

Местоположение метеостанции Chris Hadfield (Канада): широта 79.78 долгота -103.50 высота над уровнем моря 58 м.

В архиве по умолчанию представлена погода в Chris Hadfield за последнюю неделю. Архивные данные за месяц целиком и за предыдущие месяцы, начиная с января 2011 года, Вы можете получить, выбрав интересующий диапазон дат из раскрывающегося списка и нажав кнопку "Ввод!".


*Определитесь, кто Вы:
робот инопланетянин человек

Внимание! Время в таблицах - всемирное. Для получения местного времени необходимо прибавить поправку, которая в Chris Hadfield равна -7 ч.

Смотрите также архив погоды в соседних городах и на ближайших метеорологических станциях:

Погода в Isachsen (aut) (Канада) (111 км)
Погода в Eureka Climate (Канада) (343 км)
Погода в Eureka (Канада) (343 км)
Погода в Mould Bay Cs (Канада) (534 км)
Погода в Resolute Airport (Канада) (599 км)
Погода в Resolute Cs (Канада) (599 км)
Погода в Stefansson Island (Канада) (670 км)
Погода в Aulvik Ntl Park (Канада) (745 км)
Погода в Alert Climate (Канада) (747 км)
Погода в Kitsissut (Гренландия) (765 км)

Пояснения к столбцам:

Ветер - указаны скорость ветра в м/с - средняя за 10 мин, порывы в срок и между сроками (в фигурных скобках) и направление, откуда дует ветер: С - северный, СВ - северо-восточный, В - восточный, ЮВ - юго-восточный, Ю - южный, ЮЗ - юго-западный, З - западный, СЗ - северо-западный.
Видимость - горизонтальная дальность видимости в метрах или километрах. При видимости от 1 до 10 км при отсутствии осадков обычно наблюдается дымка, при ухудшении видимости до 1 км и менее - туман. В сухую погоду видимость может ухудшаться дымом, пылью или мглою.
Явления - указаны атмосферные явления, наблюдавшиеся в срок или в последний час перед сроком; фигурными скобками обозначены явления, наблюдавшиеся между сроками (за 1-3 часа до срока); квадратными скобками обозначены град или гололедные отложения с указанием их диаметра в мм.
Облачность - указаны через наклонную черту общая и нижняя облачность в баллах и высота нижней границы облаков в метрах; квадратными скобками обозначены формы облаков: Ci - перистые, Cs - перисто-слоистые, Cc - перисто-кучевые, Ac - высококучевые, As - высокослоистые, Sc - слоисто-кучевые, Ns - слоисто-дождевые, Cu - кучевые, Cb - кучево-дождевые. Подробнее классификацию облаков см. в Атласе облаков (PDF).
T - Температура воздуха - температура, измеренная на высоте 2 м над землей.
Td - Температура точки росы - температура, при понижении до которой содержащийся в воздухе водяной пар достигнет насыщения.
f - Относительная влажность воздуха - влажноcть воздуха, измеренная на высоте 2 м над землей.
Te - Эффективная температура - температура, которую ощущает одетый по сезону человек в тени. Характеристика душности погоды. При расчете учитывается влияние влажности воздуха и скорости ветра на теплоощущения человека.
Tes - Эффективная температура на солнце - температура, которую ощущает человек, с поправкой на солнечный нагрев. Характеристика знойности погоды. Зависит от высоты солнца над горизонтом, облачности и скорости ветра. Ночью, в пасмурную погоду, а также при ветре 12 м/с и более поправка равна нулю.
P - Атмосферное давление - приведенное к уровню моря атмосферное давление.
Po - Атмосферное давление - измеренное на уровне метеостанции атмосферное давление.
Tmin - Минимальная температура - минимум температуры воздуха на высоте 2 м над землей.
Tmax - Максимальная температура - максимум температуры воздуха на высоте 2 м над землей.
R - Количество осадков - Количество выпавших осадков за период времени, мм. При наведении курсора мыши на число - период времени, за который выпало указанное количество осадков.
R24 - Количество осадков - Количество выпавших осадков за 24 часа, мм.
S - Снежный покров - Высота снежного покрова, см. При наведении курсора мыши на число - состояние снежного покрова и степень покрытия местности в баллах.